CW9086 Weather Reports


Display with metric or nautical units.
time (UTC)temp
F
wind
direction
speed
MPH
gust
MPH
rain 1hr
in
rain 24hr
in
rain mn
in
humidity
%
barometer
mb
20220122071604 39 29 0.0 1.0 0.00 0.01 0.01 93 1033.2
20220122071104 39 29 0.0 0.0 0.00 0.01 0.01 93 1033.3
20220122070604 39 29 0.0 0.0 0.00 0.01 0.01 93 1033.3
20220122070104 40 29 0.0 0.0 0.00 0.01 0.01 93 1033.3
20220122065604 40 29 0.0 0.0 0.00 0.01 0.01 93 1033.2
20220122065104 40 29 0.0 0.0 0.00 0.01 0.01 93 1033.2
20220122064604 40 29 0.0 0.0 0.00 0.01 0.01 93 1033.2
20220122064104 40 29 0.0 0.0 0.00 0.01 0.01 93 1033.3
20220122063604 40 29 0.0 0.0 0.00 0.01 0.01 93 1033.3
20220122063104 40 29 0.0 0.0 0.00 0.01 0.01 93 1033.3
20220122062604 40 29 0.0 0.0 0.00 0.01 0.01 93 1033.3
20220122062104 40 29 0.0 0.0 0.00 0.01 0.01 93 1033.4
20220122061604 40 30 0.0 0.0 0.00 0.01 0.01 93 1033.4
20220122061104 40 29 0.0 0.0 0.00 0.02 0.01 93 1033.3
20220122060604 40 30 0.0 0.0 0.00 0.02 0.01 93 1033.3
20220122060104 41 30 0.0 0.0 0.00 0.02 0.01 93 1033.3
20220122055604 41 30 0.0 0.0 0.00 0.02 0.01 93 1033.3
20220122055105 41 30 0.0 0.0 0.00 0.02 0.01 93 1033.3
20220122054604 41 30 0.0 0.0 0.00 0.02 0.01 93 1033.2
20220122054104 41 30 0.0 0.0 0.00 0.02 0.01 93 1033.3
20220122053604 41 30 0.0 0.0 0.00 0.02 0.01 93 1033.2
20220122053104 41 30 0.0 0.0 0.00 0.02 0.01 93 1033.2
20220122052604 41 30 0.0 1.0 0.00 0.02 0.01 93 1033.2
20220122052104 41 30 0.0 1.0 0.00 0.02 0.01 93 1033.2
20220122051604 41 29 0.0 1.0 0.00 0.02 0.01 93 1033.2
20220122051104 41 38 0.0 1.0 0.00 0.02 0.01 93 1033.2
20220122050604 42 76 0.0 0.0 0.00 0.02 0.01 93 1033.3
20220122050104 42 89 0.0 3.0 0.00 0.02 0.01 93 1033.4
20220122045605 42 89 0.0 3.0 0.00 0.02 0.01 93 1033.4
20220122045103 42 43 0.0 3.0 0.00 0.02 0.01 93 1033.4
20220122044604 42 21 0.0 0.0 0.00 0.02 0.01 93 1033.5
20220122044104 42 22 0.0 2.0 0.00 0.02 0.01 93 1033.5
20220122043604 42 22 0.0 2.0 0.00 0.02 0.01 93 1033.5
20220122043103 42 72 0.0 2.0 0.00 0.02 0.01 93 1033.6
20220122042604 42 7 0.0 1.0 0.00 0.02 0.01 93 1033.6
20220122042104 42 5 0.0 1.0 0.00 0.02 0.01 93 1033.7
20220122041604 42 25 0.0 3.0 0.00 0.02 0.01 93 1033.8
20220122041104 42 25 0.0 3.0 0.00 0.02 0.01 93 1033.9
20220122040604 42 347 0.0 3.0 0.00 0.02 0.01 94 1034.0
20220122040104 42 195 0.0 3.0 0.00 0.02 0.01 93 1034.1
20220122035604 42 12 0.0 1.0 0.00 0.02 0.01 93 1034.2
20220122035104 42 8 0.0 1.0 0.00 0.02 0.01 93 1034.4
20220122034604 42 8 0.0 1.0 0.00 0.02 0.01 93 1034.4
20220122034104 42 8 0.0 1.0 0.00 0.02 0.01 93 1034.5
20220122033604 42 8 0.0 1.0 0.00 0.02 0.01 93 1034.6
20220122033104 42 7 0.0 1.0 0.00 0.02 0.01 93 1034.6
20220122032604 42 7 0.0 1.0 0.00 0.02 0.01 93 1034.7
20220122032104 42 7 0.0 2.0 0.00 0.02 0.01 93 1034.7
20220122031604 42 7 0.0 2.0 0.00 0.02 0.01 93 1034.7
20220122031104 42 6 0.0 1.0 0.00 0.02 0.01 93 1034.7
20220122030604 42 6 0.0 1.0 0.00 0.02 0.01 93 1034.7
20220122030104 42 7 0.0 0.0 0.00 0.02 0.01 93 1034.6
20220122025604 42 7 0.0 0.0 0.00 0.02 0.01 93 1034.6
20220122025103 42 7 0.0 1.0 0.00 0.02 0.01 93 1034.7
20220122024604 42 7 0.0 1.0 0.00 0.02 0.01 92 1034.8
20220122024103 42 7 0.0 0.0 0.00 0.02 0.01 92 1034.8
20220122023604 42 20 0.0 0.0 0.00 0.02 0.01 92 1034.9
20220122023104 42 20 0.0 0.0 0.00 0.02 0.01 92 1035.0
20220122022603 42 20 0.0 0.0 0.00 0.02 0.01 92 1035.1
20220122022104 42 20 0.0 0.0 0.00 0.02 0.01 92 1035.0
20220122021604 42 20 0.0 0.0 0.00 0.02 0.01 91 1035.1
20220122021104 42 359 0.0 0.0 0.00 0.02 0.01 91 1035.1
20220122020605 42 219 0.0 1.0 0.00 0.02 0.01 91 1035.2
20220122020105 43 359 0.0 1.0 0.00 0.02 0.01 91 1035.3
20220122015605 43 359 0.0 0.0 0.00 0.02 0.01 91 1035.3
20220122015104 43 190 0.0 0.0 0.00 0.02 0.01 91 1035.2
20220122014604 43 1 0.0 0.0 0.00 0.02 0.01 91 1035.2
20220122014105 43 359 0.0 0.0 0.00 0.02 0.01 91 1035.2
20220122013604 43 190 0.0 0.0 0.00 0.02 0.01 91 1035.3
20220122013104 43 190 0.0 0.0 0.00 0.02 0.01 90 1035.3
20220122012604 43 190 0.0 0.0 0.00 0.02 0.01 90 1035.3
20220122012105 44 190 0.0 0.0 0.00 0.02 0.01 90 1035.3
20220122011604 44 210 0.0 0.0 0.00 0.02 0.01 90 1035.3
20220122011104 44 190 0.0 0.0 0.00 0.02 0.01 90 1035.3
20220122010605 44 196 0.0 0.0 0.00 0.02 0.01 90 1035.3
20220122010105 44 355 0.0 0.0 0.00 0.02 0.01 90 1035.3
20220122005604 45 359 0.0 0.0 0.00 0.02 0.01 90 1035.3
20220122005105 45 193 0.0 0.0 0.00 0.02 0.01 90 1035.4
20220122004606 45 190 0.0 0.0 0.00 0.02 0.01 90 1035.4
20220122004105 45 219 0.0 0.0 0.00 0.02 0.01 90 1035.3
20220122003604 45 356 0.0 0.0 0.00 0.02 0.01 90 1035.4
20220122003105 45 359 0.0 1.0 0.00 0.02 0.01 90 1035.3
20220122002604 45 359 0.0 1.0 0.00 0.02 0.01 91 1035.3
20220122002105 46 357 0.0 1.0 0.00 0.02 0.01 91 1035.4
20220122001604 46 357 0.0 1.0 0.00 0.02 0.01 91 1035.4
20220122001105 46 357 0.0 1.0 0.00 0.02 0.01 91 1035.4
20220122000605 46 357 0.0 1.0 0.00 0.02 0.01 91 1035.3
20220122000105 46 357 0.0 1.0 0.00 0.02 0.01 91 1035.4
20220121235604 46 357 0.0 1.0 0.00 0.02 0.01 91 1035.4
20220121235104 46 357 0.0 1.0 0.00 0.02 0.01 90 1035.4
20220121234604 46 22 0.0 1.0 0.00 0.02 0.01 90 1035.4
20220121234105 46 26 0.0 1.0 0.00 0.02 0.01 90 1035.3
20220121233604 46 16 0.0 3.0 0.00 0.02 0.01 90 1035.3
20220121233105 46 0 0.0 3.0 0.00 0.02 0.01 91 1035.3
20220121232604 46 190 0.0 1.0 0.00 0.03 0.01 91 1035.3
20220121232105 46 190 0.0 1.0 0.00 0.03 0.01 91 1035.2
20220121231604 46 12 0.0 1.0 0.00 0.03 0.01 91 1035.2
20220121231104 46 353 0.0 3.0 0.00 0.03 0.01 91 1035.2
20220121230605 46 353 0.0 3.0 0.00 0.03 0.01 91 1035.2
20220121230104 46 353 0.0 3.0 0.00 0.03 0.01 92 1035.2
20220121225604 46 353 0.0 3.0 0.00 0.03 0.01 92 1035.1
20220121225104 46 353 0.0 1.0 0.00 0.03 0.01 92 1035.2
20220121224604 46 353 0.0 1.0 0.00 0.03 0.01 92 1035.1
20220121224104 46 353 0.0 1.0 0.00 0.03 0.01 92 1035.0
20220121223605 46 352 0.0 1.0 0.00 0.03 0.01 92 1035.0
20220121223104 46 352 0.0 1.0 0.00 0.03 0.01 92 1035.0
20220121222604 46 352 0.0 1.0 0.00 0.03 0.01 92 1035.0
20220121222105 45 10 0.0 2.0 0.00 0.03 0.01 92 1035.0
20220121221604 45 352 0.0 2.0 0.00 0.03 0.01 92 1035.1
20220121221104 45 10 0.0 1.0 0.00 0.03 0.01 92 1035.1
20220121220604 45 12 0.0 1.0 0.00 0.03 0.01 92 1035.2
20220121220104 45 12 0.0 3.0 0.00 0.03 0.01 92 1035.2
20220121215605 45 0 1.0 3.0 0.00 0.03 0.01 92 1035.2
20220121215104 45 2 0.0 2.0 0.00 0.03 0.01 92 1035.4
20220121214604 45 8 0.0 1.0 0.00 0.03 0.01 92 1035.5
20220121214104 45 8 0.0 1.0 0.00 0.03 0.01 92 1035.6
20220121213604 45 8 0.0 1.0 0.00 0.03 0.01 92 1035.6
20220121213105 45 7 0.0 1.0 0.00 0.03 0.01 92 1035.6
20220121212604 45 7 0.0 1.0 0.00 0.03 0.01 92 1035.5
20220121212104 45 7 0.0 1.0 0.00 0.03 0.01 92 1035.4
20220121211604 45 7 0.0 1.0 0.00 0.03 0.01 93 1035.4
20220121211104 45 7 0.0 0.0 0.00 0.03 0.01 93 1035.5
20220121210604 45 7 0.0 0.0 0.00 0.03 0.01 93 1035.6
20220121210104 45 8 0.0 0.0 0.00 0.03 0.01 93 1035.8
20220121205605 45 8 0.0 0.0 0.00 0.03 0.01 93 1035.8
20220121205104 45 8 0.0 0.0 0.00 0.03 0.01 93 1035.9
20220121204604 45 8 0.0 0.0 0.00 0.03 0.01 93 1036.0
20220121204104 45 8 0.0 0.0 0.00 0.03 0.01 93 1036.0
20220121203604 45 8 0.0 0.0 0.00 0.03 0.01 93 1036.1
20220121203104 45 8 0.0 0.0 0.00 0.03 0.01 93 1036.2
20220121202604 45 8 0.0 1.0 0.00 0.03 0.01 93 1036.2
20220121202104 45 8 0.0 1.0 0.00 0.03 0.01 93 1036.3
20220121201605 45 8 0.0 1.0 0.00 0.03 0.01 93 1036.3
20220121201104 45 8 0.0 1.0 0.00 0.03 0.01 93 1036.4
20220121200604 45 0 0.0 1.0 0.00 0.03 0.01 93 1036.5
20220121200104 45 356 0.0 1.0 0.00 0.03 0.01 93 1036.6
20220121195604 45 355 0.0 2.0 0.00 0.03 0.01 94 1036.6
20220121195104 45 358 0.0 2.0 0.00 0.03 0.01 94 1036.9
20220121194605 45 359 0.0 1.0 0.00 0.03 0.01 94 1036.9
20220121194104 45 357 0.0 2.0 0.00 0.03 0.01 94 1036.9
20220121193605 45 1 0.0 3.0 0.00 0.03 0.01 94 1037.0
20220121193104 45 0 0.0 3.0 0.00 0.03 0.01 94 1037.0
20220121192604 45 9 0.0 1.0 0.00 0.03 0.01 95 1037.1
20220121192104 45 24 0.0 2.0 0.00 0.03 0.01 95 1037.0
20220121191604 45 2 1.0 2.0 0.00 0.03 0.01 95 1037.1
20220121191105 45 6 0.0 1.0 0.00 0.03 0.01 95 1037.2
20220121190604 45 6 0.0 0.0 0.00 0.03 0.01 95 1037.2
20220121190105 45 6 0.0 1.0 0.01 0.03 0.01 95 1037.4
20220121185604 45 6 0.0 1.0 0.01 0.03 0.01 95 1037.4
20220121185104 45 6 0.0 1.0 0.01 0.03 0.01 95 1037.5
20220121184604 45 6 0.0 1.0 0.01 0.03 0.01 95 1037.3
20220121184104 45 6 0.0 1.0 0.01 0.03 0.01 95 1037.1
20220121183604 45 6 0.0 0.0 0.01 0.03 0.01 95 1036.9
20220121183104 45 6 0.0 0.0 0.01 0.03 0.01 95 1036.9
20220121182604 45 6 0.0 1.0 0.01 0.03 0.01 95 1036.9
20220121182104 45 6 0.0 1.0 0.01 0.03 0.01 95 1036.7
20220121181605 44 6 0.0 0.0 0.01 0.03 0.01 95 1036.8
20220121181104 44 6 0.0 0.0 0.01 0.03 0.01 95 1036.9
20220121180604 44 6 0.0 0.0 0.01 0.03 0.01 95 1037.0
20220121180105 44 6 0.0 1.0 0.00 0.02 0.00 95 1037.0
20220121175604 44 6 0.0 1.0 0.00 0.02 0.00 95 1037.0
20220121175104 45 6 0.0 1.0 0.00 0.02 0.00 95 1036.9
20220121174604 45 6 0.0 1.0 0.00 0.02 0.00 95 1036.9
20220121174104 45 6 0.0 3.0 0.00 0.02 0.00 95 1037.0
20220121173604 45 6 0.0 3.0 0.00 0.02 0.00 95 1036.9
20220121173104 45 356 0.0 3.0 0.00 0.02 0.00 95 1036.8
20220121172603 45 344 1.0 3.0 0.00 0.02 0.00 95 1036.7
20220121172104 45 2 0.0 0.0 0.00 0.02 0.00 95 1036.6
20220121171604 45 2 0.0 1.0 0.00 0.02 0.00 95 1036.7
20220121171104 45 2 0.0 1.0 0.00 0.02 0.00 95 1036.7
20220121170604 45 2 0.0 0.0 0.00 0.02 0.00 95 1036.8
20220121170104 44 2 0.0 0.0 0.00 0.02 0.00 95 1036.7
20220121165604 44 2 0.0 0.0 0.00 0.03 0.00 95 1036.6
20220121165104 44 2 0.0 0.0 0.00 0.03 0.00 95 1036.4
20220121164604 44 2 0.0 0.0 0.00 0.03 0.00 95 1036.4
20220121164104 44 2 0.0 0.0 0.00 0.03 0.00 95 1036.3
20220121163604 44 2 0.0 0.0 0.00 0.03 0.00 95 1036.1
20220121163104 44 2 0.0 0.0 0.00 0.03 0.00 95 1036.1
20220121162604 44 1 0.0 0.0 0.00 0.03 0.00 95 1036.1
20220121162104 44 2 0.0 0.0 0.00 0.03 0.00 95 1036.0
20220121161604 44 1 0.0 0.0 0.00 0.03 0.00 95 1035.9
20220121161104 44 2 0.0 0.0 0.00 0.03 0.00 95 1035.7
20220121160604 44 2 0.0 0.0 0.00 0.03 0.00 95 1035.6
20220121160104 44 2 0.0 0.0 0.00 0.03 0.00 95 1035.5
20220121155604 44 2 0.0 0.0 0.00 0.03 0.00 95 1035.6
20220121155104 44 2 0.0 0.0 0.00 0.03 0.00 95 1035.6
20220121154604 44 2 0.0 0.0 0.00 0.03 0.00 95 1035.5
20220121154104 44 2 0.0 0.0 0.00 0.04 0.00 95 1035.4
20220121153604 44 2 0.0 0.0 0.00 0.04 0.00 95 1035.3
20220121153104 44 2 0.0 0.0 0.00 0.04 0.00 95 1034.9
20220121152604 44 2 0.0 0.0 0.00 0.04 0.00 95 1035.1
20220121152105 44 2 0.0 0.0 0.00 0.04 0.00 95 1034.9
20220121151604 44 2 0.0 0.0 0.00 0.04 0.00 95 1034.8
20220121151104 44 2 0.0 0.0 0.00 0.04 0.00 95 1034.9
20220121150604 44 2 0.0 0.0 0.00 0.04 0.00 95 1035.5
20220121150104 44 2 0.0 0.0 0.00 0.04 0.00 95 1035.7
20220121145604 44 2 0.0 0.0 0.00 0.04 0.00 95 1035.5
20220121145104 44 2 0.0 0.0 0.00 0.04 0.00 95 1035.3
20220121144604 44 1 0.0 0.0 0.00 0.04 0.00 95 1035.2
20220121144104 44 2 0.0 0.0 0.00 0.04 0.00 95 1035.0
20220121143604 44 2 0.0 0.0 0.00 0.04 0.00 95 1034.9
20220121143104 44 2 0.0 0.0 0.00 0.04 0.00 95 1035.0
20220121142603 44 2 0.0 0.0 0.00 0.04 0.00 95 1035.0
20220121142104 44 2 0.0 0.0 0.00 0.04 0.00 95 1035.1
20220121141603 44 2 0.0 0.0 0.00 0.04 0.00 95 1035.1
20220121141105 44 2 0.0 0.0 0.00 0.04 0.00 95 1035.0
20220121140605 44 2 0.0 0.0 0.00 0.04 0.00 95 1035.0
20220121140104 44 2 0.0 0.0 0.00 0.04 0.00 95 1034.9
20220121135604 44 2 0.0 0.0 0.00 0.04 0.00 95 1034.8
20220121135104 44 2 0.0 0.0 0.00 0.04 0.00 95 1034.5
20220121134603 44 2 0.0 0.0 0.00 0.05 0.00 95 1034.5
20220121134104 44 2 0.0 0.0 0.00 0.05 0.00 95 1034.4
20220121133604 44 2 0.0 0.0 0.00 0.05 0.00 95 1034.2
20220121133104 44 2 0.0 0.0 0.00 0.05 0.00 95 1034.3
20220121132604 44 2 0.0 0.0 0.00 0.06 0.00 95 1034.4
20220121132104 44 2 0.0 0.0 0.00 0.07 0.00 95 1034.4
20220121131604 44 2 0.0 0.0 0.00 0.07 0.00 95 1034.5
20220121131104 44 2 0.0 0.0 0.00 0.11 0.00 95 1034.4
20220121130603 44 2 0.0 0.0 0.00 0.15 0.00 95 1034.5
20220121130104 44 2 0.0 0.0 0.00 0.22 0.00 95 1034.4
20220121125604 44 2 0.0 0.0 0.00 0.22 0.00 95 1034.4
20220121125104 44 2 0.0 0.0 0.00 0.22 0.00 95 1034.4
20220121124604 44 2 0.0 0.0 0.00 0.22 0.00 95 1034.4
20220121124103 44 2 0.0 0.0 0.00 0.22 0.00 94 1034.3
20220121123604 44 2 0.0 0.0 0.00 0.23 0.00 95 1034.2
20220121123103 45 2 0.0 0.0 0.00 0.24 0.00 94 1034.2
20220121122604 45 2 0.0 0.0 0.00 0.24 0.00 94 1034.1
20220121122103 45 2 0.0 0.0 0.00 0.24 0.00 94 1034.1
20220121121604 45 2 0.0 0.0 0.00 0.24 0.00 95 1034.1
20220121121104 45 2 0.0 0.0 0.00 0.24 0.00 94 1034.3
20220121120604 45 2 0.0 0.0 0.00 0.24 0.00 95 1034.2
20220121120104 45 2 0.0 0.0 0.00 0.24 0.00 95 1034.3
20220121115603 45 2 0.0 0.0 0.00 0.24 0.00 95 1034.3
20220121115104 45 2 0.0 0.0 0.00 0.24 0.00 95 1034.3
20220121114604 45 2 0.0 0.0 0.00 0.24 0.00 94 1034.3
20220121114103 45 2 0.0 0.0 0.00 0.24 0.00 94 1034.3
20220121113604 45 2 0.0 0.0 0.00 0.24 0.00 95 1034.4
20220121113104 45 2 0.0 0.0 0.00 0.24 0.00 95 1034.4
20220121112604 45 2 0.0 0.0 0.00 0.24 0.00 95 1034.4
20220121112103 45 2 0.0 0.0 0.00 0.24 0.00 95 1034.3
20220121111603 45 2 0.0 0.0 0.00 0.24 0.00 95 1034.5
20220121111104 45 2 0.0 0.0 0.00 0.24 0.00 95 1034.4
20220121110603 45 2 0.0 0.0 0.00 0.24 0.00 95 1034.5
20220121110104 45 2 0.0 1.0 0.00 0.24 0.00 95 1034.6
20220121105604 45 2 0.0 2.0 0.00 0.24 0.00 95 1034.6
20220121105104 45 2 0.0 2.0 0.00 0.24 0.00 95 1034.7
20220121104604 45 2 0.0 1.0 0.00 0.24 0.00 95 1034.7
20220121104104 45 2 0.0 1.0 0.00 0.24 0.00 95 1034.7
20220121103604 45 1 0.0 3.0 0.00 0.24 0.00 95 1034.6
20220121103104 45 1 0.0 3.0 0.00 0.24 0.00 95 1034.6
20220121102603 44 352 0.0 3.0 0.00 0.24 0.00 95 1034.3
20220121102104 44 190 0.0 1.0 0.00 0.24 0.00 95 1034.2
20220121101604 44 190 0.0 1.0 0.00 0.24 0.00 95 1034.1
20220121101105 44 190 0.0 1.0 0.00 0.24 0.00 95 1033.9
20220121100605 44 190 0.0 1.0 0.00 0.24 0.00 95 1033.9
20220121100105 44 190 0.0 0.0 0.00 0.24 0.00 95 1033.7
20220121095606 44 190 0.0 0.0 0.00 0.24 0.00 95 1033.6
20220121095105 44 190 0.0 0.0 0.00 0.24 0.00 95 1033.5
20220121094605 45 190 0.0 0.0 0.00 0.24 0.00 95 1033.3
20220121094106 45 190 0.0 0.0 0.00 0.24 0.00 95 1033.2
20220121093606 45 190 0.0 0.0 0.00 0.24 0.00 95 1033.0
20220121093105 45 190 0.0 0.0 0.00 0.24 0.00 95 1032.9
20220121092605 45 190 0.0 0.0 0.00 0.24 0.00 95 1032.9
20220121092105 45 190 0.0 0.0 0.00 0.24 0.00 95 1032.8
20220121091606 45 190 0.0 0.0 0.00 0.24 0.00 95 1032.7